[Date Prev][Date Next][Thread Prev][Thread Next] - [Date Index][Thread Index][Author Index]

2 Line ISS Keps 4-17



ISS
1 25544U 98067A   05107.28126362  .00023283  00000-0  18411-3 0  2600
2 25544 051.6454 212.6853 0006957 021.5884 072.6545 15.71222481366107
----
Via the sarex mailing list at AMSAT.ORG courtesy of AMSAT-NA.
To unsubscribe, send "unsubscribe sarex" to Majordomo@amsat.org



AMSAT Top AMSAT Home